Tracking 32422 objects as of 7-Dec-2025
HD Live streaming from Space Station
objects crossing your sky now

ARIANE 42P+ DEB

Track ARIANE 42P+ DEB now!
10-day predictions


NORAD ID: 34197
Int'l Code: 1992-072AD
Perigee: 509.9 km
Apogee: 19,077.0 km
Inclination: 13.1 °
Period: 340.9 minutes
Semi major axis: 16164 km
RCS: 0.3693 m2 (medium)
Launch date: October 28, 1992
Source: France (FR)
Launch site: FRENCH GUIANA (FRGUI)

Note: This is SATELLITE DEBRIS
Your satellite tracking list
Your tracking list is empty




NASA's NSSDC Master Catalog

Two Line Element Set (TLE):
1 34197U 92072AD  25336.30561226  .00000632  00000-0  15494-2 0  9994
2 34197  13.0811 242.4373 5743171 157.1236 244.8310  4.22436453182341
Source of the keplerian elements: AFSPC